GMT,Max TemperatureF,Mean TemperatureF,Min TemperatureF,Max Dew PointF,MeanDew PointF,Min DewpointF,Max Humidity, Mean Humidity, Min Humidity, Max Sea Level PressureIn, Mean Sea Level PressureIn, Min Sea Level PressureIn, Max VisibilityMiles, Mean VisibilityMiles, Min VisibilityMiles, Max Wind SpeedMPH, Mean Wind SpeedMPH, Max Gust SpeedMPH,PrecipitationIn, CloudCover, Events, WindDirDegrees
2013-1-1,43,38,33,37,36,32,87,81,75,29.99,29.80,29.55,16,7,6,21,14,34,0.00,4,Rain,284
2013-1-2,51,44,38,50,49,42,100,99,94,30.17,30.09,30.03,17,6,0,23,12,36,0.03,7,Rain,230
2013-1-3,49,49,48,50,48,48,100,99,94,30.45,30.36,30.26,12,4,0,18,13,30,0.04,8,Fog-Rain,208
2013-1-4,48,47,46,47,46,46,100,95,90,30.50,30.45,30.39,19,6,0,20,15,24,0.01,7,Fog-Rain,180
2013-1-5,49,48,46,50,47,44,100,95,84,30.37,30.27,30.21,19,6,0,21,15,32,0.20,7,Fog-Rain,182
2013-1-6,50,46,41,50,48,42,100,99,93,30.44,30.19,30.15,6,2,0,18,14,30,0.16,8,Fog-Rain,177
2013-1-7,51,49,47,52,50,48,100,100,94,30.14,29.98,29.92,2,1,0,15,13,,0.31,7,Fog-Rain,171
2013-1-8,47,46,41,50,42,39,100,89,76,30.25,30.13,29.92,12,6,6,18,11,,0.00,2,Rain,249
2013-1-9,39,36,32,39,35,32,100,99,88,30.25,30.13,30.06,6,1,0,7,5,,0.01,4,Fog,150
2013-1-10,44,38,33,43,38,32,100,94,80,30.04,29.86,29.83,19,4,0,17,11,,0.03,5,Fog-Rain,183
2013-1-11,43,38,33,43,38,33,100,99,87,30.03,29.85,29.77,7,2,0,14,9,,0.00,7,Fog,129
2013-1-12,42,40,37,41,38,35,100,92,76,30.03,29.85,29.71,19,7,0,14,11,,0.00,4,Fog,78
2013-1-13,42,37,32,41,36,32,100,94,87,30.17,30.12,30.09,16,6,0,12,7,,0.04,6,Fog-Rain,261
2013-1-14,43,38,35,39,37,34,100,89,76,30.10,29.98,29.95,19,7,4,20,15,31,0.04,3,Rain,311
2013-1-15,38,36,34,37,35,32,100,91,78,30.00,29.85,29.74,19,7,6,11,7,,0.12,6,Rain,177
2013-1-16,41,37,33,41,39,33,100,100,97,29.83,29.74,29.68,0,0,0,12,9,,0.12,,Fog-Rain,162
2013-1-17,42,40,38,41,40,39,100,99,93,29.86,29.67,29.50,16,3,0,18,9,26,0.00,7,Fog-Rain,134
2013-1-18,36,34,32,44,34,32,100,99,93,29.33,29.22,29.18,7,1,0,27,12,,0.16,8,Fog-Rain-Snow,117
2013-1-19,35,32,30,36,33,27,100,97,70,29.56,29.45,29.27,6,1,0,12,6,,0.00,7,Fog-Rain,123
2013-1-20,33,32,30,32,30,28,100,93,82,29.59,29.41,29.33,16,6,5,13,10,,0.00,6,,125
2013-1-21,34,32,29,33,32,30,100,97,93,29.40,29.36,29.33,19,5,0,11,7,,0.00,7,Fog,108
2013-1-22,33,31,29,32,31,30,100,99,93,29.66,29.52,29.39,6,2,0,9,5,,0.01,6,Fog-Snow,137
2013-1-23,35,32,28,34,32,29,100,97,87,29.76,29.67,29.62,6,4,0,13,10,,0.00,6,Fog,123
2013-1-24,37,32,28,36,32,28,100,99,93,29.95,29.89,29.83,6,1,0,14,9,,0.00,7,Fog,146
2013-1-25,45,40,34,45,41,34,100,95,76,29.83,29.47,29.36,16,3,0,21,15,29,0.24,7,Fog-Rain,215
2013-1-26,50,42,33,48,42,32,100,96,70,29.66,29.35,29.00,19,5,0,22,12,38,0.35,7,Fog-Rain,178
2013-1-27,39,36,33,41,34,30,100,88,75,29.26,29.10,28.97,16,7,5,24,14,44,0.16,5,Rain-Snow,228
2013-1-28,47,40,34,45,40,34,100,90,65,29.39,29.09,28.94,14,6,1,38,22,58,0.31,6,Rain,197
2013-1-29,51,46,41,52,44,36,100,91,66,29.37,29.12,29.00,16,5,1,34,19,48,0.12,7,Rain,199
2013-1-30,45,40,37,39,38,36,95,87,76,29.77,29.53,29.30,19,8,6,32,19,45,0.16,4,Rain,256
2013-1-31,45,41,38,41,38,36,93,86,76,29.70,29.62,29.41,16,7,4,29,24,44,0.08,4,Rain-Hail,247